Date String (YYYY-MM-DD hh:mm:ss) UTC,Instrument flags,absolute air pressure of the measurement (hPa),sample flow rate (lpm),inlet stack bypass flow (lpm),air temperature of the measurement (°C),ambient temperature measured by the external sensor (°C),aerosol sample conditioner tube jacket temperature (°C),OPC LED temperature (°C),internal box temperature (°C),relative humidity of the measurement (%),span deviation,mass concentration of particles derived from Lorenz-Mie calculation of OPC scattering (μg/m³),mass concentration of particles derived from Lorenz-Mie calculation of OPC scattering (μg/m³),mass concentration of particles derived from Lorenz-Mie calculation of OPC scattering (μg/m³)
DateTimeUTC,F1_M11,P_M11,Q1_M11,Q2_M11,T1_M11,T2_M11,T3_M11,T4_M11,T5_M11,U1_M11,ZSPAN_M11,X0_M11,X2_M11,X1_M11
2023-09-13 16:00:00,SystemResetWarning,0831.3,5.01,000.00,028.1,027.0,000.0,036.2,029.8,23.9,-000.3,0010.30,0005.40,0004.88
2023-09-13 16:01:00,SystemResetWarning,0831.3,5.00,000.00,028.1,027.1,000.0,036.2,029.9,24.5,0000.0,0009.91,0005.42,0004.88
2023-09-13 16:02:00,SystemResetWarning,0831.3,5.00,000.00,028.1,027.1,000.0,036.3,029.9,24.5,0000.6,0009.83,0005.43,0004.87
2023-09-13 16:03:00,SystemResetWarning,0831.3,5.00,000.00,028.2,027.1,000.0,036.3,029.9,24.7,0000.2,0009.85,0005.45,0004.87
2023-09-13 16:04:00,SystemResetWarning,0831.3,5.00,000.00,028.2,027.1,000.0,036.3,029.9,24.5,0000.2,0010.13,0005.48,0004.88
2023-09-13 16:05:00,SystemResetWarning,0831.3,5.00,000.00,028.2,027.2,000.0,036.3,029.9,25.0,0000.2,0009.92,0005.49,0004.89
2023-09-13 16:06:00,SystemResetWarning,0831.3,5.00,000.00,028.2,027.2,000.0,036.4,030.0,24.6,0000.2,0009.82,0005.42,0004.88
2023-09-13 16:07:00,SystemResetWarning,0831.3,5.00,000.00,028.3,027.2,000.0,036.4,030.0,24.2,0000.2,0010.67,0005.40,0004.87
2023-09-13 16:08:00,SystemResetWarning,0831.3,5.00,000.00,028.3,027.2,000.0,036.4,030.0,23.7,0000.5,0010.57,0005.39,0004.87
2023-09-13 16:09:00,SystemResetWarning,0831.3,5.00,000.00,028.3,027.3,000.0,036.4,030.1,24.1,0000.6,0010.90,0005.38,0004.86
2023-09-13 16:10:00,SystemResetWarning,0831.3,5.00,000.00,028.3,027.3,000.0,036.5,030.1,23.9,0000.9,0010.79,0005.38,0004.85
2023-09-13 16:11:00,SystemResetWarning,0831.3,5.00,000.00,028.4,027.3,000.0,036.5,030.1,24.0,0001.3,0011.21,0005.40,0004.84
2023-09-13 16:12:00,SystemResetWarning,0831.3,5.00,000.00,028.4,027.3,000.0,036.5,030.1,23.9,0000.8,0011.11,0005.38,0004.83
2023-09-13 16:13:00,SystemResetWarning,0831.3,4.99,000.00,028.4,027.4,000.0,036.6,030.2,23.7,0000.3,0011.01,0005.32,0004.81
2023-09-13 16:14:00,SystemResetWarning,0831.3,5.01,000.00,028.4,027.4,000.0,036.6,030.2,24.5,0001.5,0011.02,0005.30,0004.80
2023-09-13 16:15:00,SystemResetWarning,0831.3,5.01,000.00,028.5,027.4,000.0,036.6,030.2,24.1,0001.8,0010.76,0005.25,0004.79
2023-09-13 16:16:00,SystemResetWarning,0831.3,5.01,000.00,028.5,027.4,000.0,036.6,030.2,23.5,0001.2,0010.56,0005.22,0004.78
2023-09-13 16:17:00,SystemResetWarning,0831.3,5.00,000.00,028.5,027.5,000.0,036.6,030.2,22.8,0000.8,0010.65,0005.23,0004.78
2023-09-13 16:18:00,SystemResetWarning,0831.3,5.00,000.00,028.5,027.5,000.0,036.7,030.3,23.5,0000.8,0010.06,0005.23,0004.78
2023-09-13 16:19:00,SystemResetWarning,0831.3,4.99,000.00,028.6,027.5,000.0,036.7,030.3,23.7,0000.0,0009.70,0005.23,0004.76
2023-09-13 16:20:00,SystemResetWarning,0831.3,5.00,000.00,028.6,027.5,000.0,036.7,030.3,23.5,0000.0,0009.31,0005.22,0004.75
2023-09-13 16:21:00,SystemResetWarning,0831.3,4.99,000.00,028.6,027.6,000.0,036.7,030.3,23.2,0000.6,0008.90,0005.20,0004.75
2023-09-13 16:22:00,SystemResetWarning,0831.3,4.99,000.00,028.6,027.6,000.0,036.8,030.4,22.8,0001.0,0008.39,0005.17,0004.74
2023-09-13 16:23:00,SystemResetWarning,0831.3,4.99,000.00,028.7,027.1,000.0,036.8,030.2,23.4,0001.5,0008.58,0005.17,0004.74
2023-09-13 16:24:00,SystemResetWarning,0831.3,5.00,000.00,028.6,025.7,000.0,036.7,029.7,23.7,0001.1,0008.96,0005.18,0004.73
2023-09-13 16:25:00,SystemResetWarning,0831.3,5.02,000.00,028.5,025.4,000.0,036.7,029.7,23.9,0001.0,0009.00,0005.16,0004.72
2023-09-13 16:26:00,SystemResetWarning,0831.2,5.01,000.00,028.4,025.5,000.0,036.7,029.7,24.0,0000.9,0009.44,0005.16,0004.70
2023-09-13 16:27:00,SystemResetWarning,0831.2,4.99,000.00,028.3,025.8,000.0,036.7,029.7,24.2,0000.9,0010.00,0005.18,0004.69
2023-09-13 16:28:00,SystemResetWarning,0831.3,4.99,000.00,028.3,026.0,000.0,036.7,029.7,24.4,0001.1,0009.97,0005.16,0004.66
2023-09-13 16:29:00,SystemResetWarning,0831.3,5.00,000.00,028.3,026.2,000.0,036.7,029.8,24.5,0001.2,0009.97,0005.15,0004.66
2023-09-13 16:30:00,SystemResetWarning,0831.2,5.01,000.00,028.3,026.4,000.0,036.7,029.9,23.7,0001.0,0009.92,0005.12,0004.67
2023-09-13 16:31:00,SystemResetWarning,0831.2,5.00,000.00,028.3,026.6,000.0,036.7,029.9,24.1,0000.8,0009.88,0005.10,0004.66
2023-09-13 16:32:00,SystemResetWarning,0831.3,4.99,000.00,028.3,026.8,000.0,036.7,029.9,24.4,0000.4,0009.90,0005.09,0004.64
2023-09-13 16:33:00,SystemResetWarning,0831.3,5.00,000.00,028.4,026.9,000.0,036.7,030.0,23.5,0000.4,0009.91,0005.07,0004.63
2023-09-13 16:34:00,SystemResetWarning,0831.3,5.01,000.00,028.4,027.0,000.0,036.7,030.0,23.8,0000.6,0009.74,0005.06,0004.63
2023-09-13 16:35:00,SystemResetWarning,0831.3,5.01,000.00,028.4,027.1,000.0,036.7,030.1,24.1,0001.1,0009.35,0005.04,0004.63
2023-09-13 16:36:00,SystemResetWarning,0831.3,5.00,000.00,028.4,027.2,000.0,036.7,030.1,24.7,0001.3,0009.08,0005.04,0004.63
2023-09-13 16:37:00,SystemResetWarning,0831.2,5.00,000.00,028.5,027.2,000.0,036.7,030.1,25.3,0000.3,0009.55,0005.04,0004.63
2023-09-13 16:38:00,SystemResetWarning,0831.3,5.00,000.00,028.5,027.3,000.0,036.7,030.1,25.1,0000.0,0009.26,0005.03,0004.63
2023-09-13 16:39:00,SystemResetWarning,0831.3,4.99,000.00,028.5,027.4,000.0,036.7,030.2,24.9,0000.0,0008.98,0005.01,0004.63
2023-09-13 16:40:00,SystemResetWarning,0831.3,5.00,000.00,028.5,027.4,000.0,036.8,030.2,24.7,0000.0,0009.02,0005.04,0004.64
2023-09-13 16:41:00,SystemResetWarning,0831.2,5.00,000.00,028.5,026.7,000.0,036.7,030.0,25.3,0000.0,0009.09,0005.10,0004.66
2023-09-13 16:42:00,SystemResetWarning,0831.2,5.00,000.00,028.4,025.2,000.0,036.7,029.5,26.1,0000.0,0009.10,0005.13,0004.68
2023-09-13 16:43:00,SystemResetWarning,0831.2,5.01,000.00,028.3,024.7,000.0,036.6,029.4,26.1,0000.0,0009.36,0005.16,0004.71
2023-09-13 16:44:00,SystemResetWarning,0831.2,5.01,000.00,028.2,024.9,000.0,036.6,029.4,26.6,0000.0,0009.69,0005.19,0004.72
2023-09-13 16:45:00,SystemResetWarning,0831.2,4.99,000.00,028.2,025.2,000.0,036.6,029.4,26.3,0000.0,0009.76,0005.21,0004.74
2023-09-13 16:46:00,SystemResetWarning,0831.2,5.00,000.00,028.2,025.5,000.0,036.6,029.4,25.9,0000.0,0010.31,0005.28,0004.75
2023-09-13 16:47:00,SystemResetWarning,0831.2,5.00,000.00,028.1,025.8,000.0,036.6,029.5,25.9,0000.0,0010.79,0005.34,0004.76
2023-09-13 16:48:00,SystemResetWarning,0831.2,5.00,000.00,028.2,026.1,000.0,036.6,029.6,25.5,0000.0,0010.64,0005.35,0004.79
2023-09-13 16:49:00,SystemResetWarning,0831.2,5.00,000.00,028.2,026.3,000.0,036.6,029.6,25.6,0000.0,0010.76,0005.38,0004.81
2023-09-13 16:50:00,SystemResetWarning,0831.2,5.01,000.00,028.2,026.5,000.0,036.6,029.7,25.8,0000.0,0011.76,0005.42,0004.84
2023-09-13 16:51:00,SystemResetWarning,0831.2,5.00,000.00,028.2,026.7,000.0,036.6,029.8,25.2,0000.0,0012.04,0005.42,0004.84
2023-09-13 16:52:00,SystemResetWarning,0831.2,4.99,000.00,028.2,026.8,000.0,036.6,029.8,25.0,0000.0,0011.93,0005.37,0004.85
2023-09-13 16:53:00,SystemResetWarning,0831.2,4.99,000.00,028.2,026.9,000.0,036.6,029.9,24.1,0000.0,0012.00,0005.41,0004.88
2023-09-13 16:54:00,SystemResetWarning,0831.3,5.00,000.00,028.3,027.0,000.0,036.6,029.9,24.5,0000.0,0011.80,0005.40,0004.89
2023-09-13 16:55:00,SystemResetWarning,0831.2,5.01,000.00,028.3,027.1,000.0,036.6,030.0,25.0,0000.0,0011.41,0005.37,0004.90
2023-09-13 16:56:00,SystemResetWarning,0831.3,5.02,000.00,028.3,027.2,000.0,036.6,030.0,25.5,0000.0,0011.44,0005.39,0004.90
2023-09-13 16:57:00,SystemResetWarning,0831.3,5.00,000.00,028.4,027.3,000.0,036.6,030.0,26.1,0000.0,0011.02,0005.35,0004.90
2023-09-13 16:58:00,SystemResetWarning,0831.2,4.99,000.00,028.4,027.2,000.0,036.6,030.0,26.3,0000.0,0010.69,0005.33,0004.91
2023-09-13 16:59:00,SystemResetWarning,0831.2,4.99,000.00,028.4,025.8,000.0,036.6,029.6,25.6,0000.0,0010.41,0005.39,0004.94
